This is the latest recevied weather packets stored in our database for station/object KN6CRX. If no packets are shown the sender has not sent any weather packets the latest 10 day(s).
| Time | Temp. | Humidity | Pressure | Rain* | Wind** | Luminosity | Snow |
|---|---|---|---|---|---|---|---|
| 1787824178 | 14.44° C | 67% | 1022.9 hPa | 0 mm | - | 0 W/m² | - |
| 1787823874 | 14.44° C | 67% | 1022.6 hPa | 0 mm | - | 0 W/m² | - |
| 1787823573 | 14.44° C | 67% | 1022.9 hPa | 0 mm | - | 0 W/m² | - |
| 1787823269 | 15° C | 67% | 1022.9 hPa | 0 mm | - | 0 W/m² | - |
| 1787822967 | 15° C | 68% | 1022.9 hPa | 0 mm | - | 0 W/m² | - |
| 1787822662 | 15° C | 65% | 1022.9 hPa | 0 mm | - | 0 W/m² | - |
| 1787822357 | 15.56° C | 66% | 1022.9 hPa | 0 mm | - | 0 W/m² | - |
| 1787822051 | 15.56° C | 65% | 1022.9 hPa | 0 mm | - | 0 W/m² | - |
| 1787821750 | 15.56° C | 64% | 1022.8 hPa | 0 mm | - | 0 W/m² | - |
| 1787821446 | 15° C | 64% | 1023 hPa | 0 mm | - | 0 W/m² | - |
| 1787821146 | 15° C | 63% | 1023 hPa | 0 mm | - | 0 W/m² | - |
| 1787820841 | 15° C | 64% | 1022.9 hPa | 0 mm | - | 0 W/m² | - |
| 1787820535 | 15° C | 66% | 1022.8 hPa | 0 mm | - | 0 W/m² | - |
| 1787820231 | 15° C | 66% | 1022.8 hPa | 0 mm | - | 0 W/m² | - |
| 1787819926 | 15° C | 67% | 1023 hPa | 0 mm | - | 0 W/m² | - |
| 1787819622 | 15.56° C | 68% | 1023 hPa | 0 mm | - | 0 W/m² | - |
| 1787819321 | 15.56° C | 67% | 1023 hPa | 0 mm | - | 0 W/m² | - |
| 1787819016 | 15.56° C | 65% | 1023.1 hPa | 0 mm | - | 0 W/m² | - |
| 1787818714 | 15.56° C | 67% | 1023.1 hPa | 0 mm | - | 0 W/m² | - |
| 1787818410 | 16.11° C | 66% | 1022.8 hPa | 0 mm | - | 0 W/m² | - |
| 1787818106 | 16.11° C | 64% | 1022.8 hPa | 0 mm | - | 0 W/m² | - |
| 1787817805 | 16.11° C | 63% | 1022.6 hPa | 0 mm | - | 0 W/m² | - |
| 1787817502 | 16.11° C | 64% | 1022.6 hPa | 0 mm | - | 0 W/m² | - |
| 1787817198 | 16.67° C | 63% | 1022.8 hPa | 0 mm | - | 0 W/m² | - |
| 1787816896 | 16.11° C | 64% | 1022.5 hPa | 0 mm | - | 0 W/m² | - |
* Rain latest hour (hover to see other rain measurements)
** Current wind speed in m/s (hover to see current wind gust speed)